This demonstration page uses our WeatherBlox Daily Observations layout. Learn more.

Left ArrowRight Arrow

Hourly Observations for April 9, 2021

Temp ( °F °C ) Dew Point ( °F °C ) Humidity (%) Winds ( mph kmh ) Pressure ( in mb ) Visibility ( mi km ) Precip ( " mm )
12:15 am 00:15 Clear 40 4.5 26 -3.5 56 56 W 3 6 29.66 1004 10 16.0934 0 0
12:35 am 00:35 Clear 42 5.5 27 -2.6 56 56 W 3 6 29.65 1004 10 16.0934 0 0
12:55 am 00:55 Clear 41 5.1 26 -3.3 55 55 Calm 29.66 1004 10 16.0934 0 0
1:15 am 01:15 Clear 40 4.6 27 -3 58 58 W 3 6 29.66 1004 10 16.0934 0 0
1:35 am 01:35 Clear 40 4.5 27 -2.9 59 59 Calm 29.67 1005 10 16.0934 0 0
1:55 am 01:55 Clear 40 4.6 27 -3 58 58 Calm 29.67 1005 10 16.0934 0 0
2:15 am 02:15 Clear 37 2.8 26 -3.5 64 64 Calm 29.69 1005 10 16.0934 0 0
2:35 am 02:35 Clear 39 4 27 -3 61 61 Calm 29.68 1005 10 16.0934 0 0
2:55 am 02:55 Clear 37 2.9 26 -3.5 63 63 W 5 7 29.69 1005 10 16.0934 0 0
3:15 am 03:15 Clear 39 3.8 26 -3.1 61 61 W 5 7 29.69 1005 10 16.0934 0 0
3:35 am 03:35 Clear 40 4.5 26 -3.1 58 58 W 3 6 29.67 1005 10 16.0934 0 0
3:55 am 03:55 Clear 42 5.3 26 -3.5 53 53 NW 3 6 29.66 1005 10 16.0934 0 0
4:15 am 04:15 Clear 38 3.2 25 -3.7 61 61 W 3 6 29.68 1005 10 16.0934 0 0
4:35 am 04:35 Clear 38 3.5 25 -3.7 60 60 W 3 6 29.68 1005 10 16.0934 0 0
4:55 am 04:55 Clear 37 2.6 25 -3.7 64 64 W 3 6 29.7 1006 10 16.0934 0 0
5:15 am 05:15 Clear 37 2.5 25 -3.7 64 64 Calm 29.7 1006 10 16.0934 0 0
5:35 am 05:35 Clear 37 2.5 25 -3.7 64 64 NNW 6 9 29.71 1006 10 16.0934 0 0
5:55 am 05:55 Partly Cloudy 36 2.3 26 -3.6 65 65 WNW 3 6 29.72 1007 10 16.0934 0 0
6:15 am 06:15 Partly Cloudy 37 2.9 27 -2.9 66 66 WNW 6 9 29.73 1007 10 16.0934 0 0
6:35 am 06:35 Mostly Cloudy 37 2.9 27 -3 66 66 NW 3 6 29.72 1006 10 16.0934 0 0
6:55 am 06:55 Mostly Cloudy 41 4.8 29 -1.9 62 62 NNW 16 26 29.73 1007 10 16.0934 0 0
7:15 am 07:15 Partly Cloudy 43 6.3 29 -1.7 57 57 NNW 14 22 29.73 1007 10 16.0934 0 0
7:35 am 07:35 Sunny 42 5.8 29 -1.4 60 60 NNW 13 20 29.75 1007 10 16.0934 0 0
7:55 am 07:55 Sunny 43 6.2 31 -0.7 62 62 NNW 13 20 29.76 1008 10 16.0934 0 0
8:15 am 08:15 Sunny 45 7.2 32 0 61 61 NNW 15 24 29.76 1008 10 16.0934 0 0
8:35 am 08:35 Sunny 46 7.7 33 0.5 61 61 NNW 15 24 29.76 1008 10 16.0934 0 0
8:55 am 08:55 Sunny 48 9 34 1 58 58 N 13 20 29.76 1008 10 16.0934 0 0
9:15 am 09:15 Sunny 50 10 34 1 54 54 N 18 30 29.75 1008 10 16.0934 0 0
9:35 am 09:35 Sunny 51 10.5 34 1.1 52 52 NNW 20 31 29.76 1008 10 16.0934 0 0
9:55 am 09:55 Sunny 52 10.9 34 1.3 52 52 N 21 33 29.76 1008 10 16.0934 0 0
10:15 am 10:15 Sunny 51 10.5 34 1.1 52 52 NNW 21 33 29.78 1008 10 16.0934 0 0
10:35 am 10:35 Partly Cloudy 52 11.2 35 1.6 52 52 NNW 22 35 29.78 1009 10 16.0934 0 0
10:55 am 10:55 Sunny 53 11.6 35 1.4 50 50 N 22 35 29.8 1009 10 16.0934 0 0
11:15 am 11:15 Mostly Cloudy 52 11.2 33 0.8 49 49 NNW 17 28 29.81 1010 10 16.0934 0 0
11:35 am 11:35 Cloudy 51 10.5 33 0.7 51 51 NNW 21 33 29.83 1010 10 16.0934 0 0
11:55 am 11:55 Cloudy 52 10.9 34 1.1 51 51 NNW 22 35 29.84 1011 10 16.0934 0 0
12:15 pm 12:15 Cloudy 50 9.9 33 0.7 53 53 NW 22 35 29.88 1012 10 16.0934 0 0
12:35 pm 12:35 Cloudy 49 9.5 34 0.9 55 55 NNW 17 28 29.89 1012 10 16.0934 0 0
12:55 pm 12:55 Cloudy 48 9.1 34 1.3 58 58 NNW 18 30 29.91 1013 10 16.0934 0 0
1:15 pm 13:15 Cloudy with Light Rain 46 7.8 38 3.5 74 74 NNW 15 24 29.92 1013 10 16.0934 0 0
1:35 pm 13:35 Cloudy with Light Rain 46 8 38 3.5 74 74 NNW 12 19 29.93 1014 10 16.0934 0.01 0.254
1:55 pm 13:55 Cloudy with Rain 46 7.7 39 3.8 77 77 NNW 12 19 29.92 1013 10 16.0934 0.02 0.508
2:15 pm 14:15 Cloudy with Light Rain 46 7.5 39 3.7 77 77 NNW 14 22 29.93 1013 10 16.0934 0.01 0.254
2:35 pm 14:35 Cloudy with Light Rain 46 7.5 39 3.7 77 77 NW 14 22 29.94 1014 10 16.0934 0.02 0.508
2:55 pm 14:55 Cloudy with Drizzle 45 7.3 39 3.7 78 78 NNW 13 20 29.94 1014 10 16.0934 0.02 0.508
3:15 pm 15:15 Cloudy with Light Rain 46 7.5 39 3.8 78 78 NNW 15 24 29.94 1014 10 16.0934 0.01 0.254
3:35 pm 15:35 Cloudy with Light Rain 45 7 38 3.3 78 78 NNW 16 26 29.94 1014 10 16.0934 0.01 0.254
3:55 pm 15:55 Cloudy with Light Rain 44 6.6 38 3.3 80 80 NNW 15 24 29.94 1014 10 16.0934 0.02 0.508
4:15 pm 16:15 Cloudy with Light Rain 44 6.7 39 3.9 83 83 NNW 15 24 29.94 1014 10 16.0934 0 0
4:35 pm 16:35 Cloudy with Drizzle 44 6.5 38 3.1 79 79 NW 16 26 29.95 1014 10 16.0934 0 0
4:55 pm 16:55 Cloudy 43 6.2 38 3.2 81 81 NNW 15 24 29.96 1014 10 16.0934 0 0
5:15 pm 17:15 Cloudy 43 6.3 38 3.1 80 80 NNW 14 22 29.96 1014 10 16.0934 0 0
5:35 pm 17:35 Cloudy 44 6.5 38 3.1 79 79 NNW 13 20 29.95 1014 10 16.0934 0 0
5:55 pm 17:55 Cloudy with Drizzle 43 6.2 37 2.6 78 78 NNW 13 20 29.96 1014 10 16.0934 0 0
6:15 pm 18:15 Cloudy with Drizzle 43 6 36 2.4 78 78 NW 16 26 29.97 1015 10 16.0934 0 0
6:35 pm 18:35 Cloudy with Light Rain 42 5.5 36 2 78 78 NNW 16 26 29.97 1015 10 16.0934 0 0
6:55 pm 18:55 Cloudy with Drizzle 42 5.5 35 1.9 78 78 NNW 14 22 29.97 1015 10 16.0934 0 0
7:15 pm 19:15 Cloudy with Drizzle 42 5.5 35 1.9 78 78 NNW 15 24 29.97 1015 10 16.0934 0 0
7:35 pm 19:35 Cloudy with Drizzle 42 5.3 35 1.7 78 78 NNW 17 28 29.98 1015 10 16.0934 0 0
7:55 pm 19:55 Cloudy 40 4.7 35 1.9 82 82 NNW 12 19 29.98 1015 10 16.0934 0 0
8:15 pm 20:15 Cloudy 40 4.6 36 2 83 83 NW 14 22 29.98 1015 10 16.0934 0 0
8:35 pm 20:35 Cloudy with Drizzle 40 4.3 36 2 85 85 NNW 16 26 29.98 1015 10 16.0934 0 0
8:55 pm 20:55 Cloudy with Rain 39 3.7 36 2 89 89 NNW 13 20 29.99 1016 7 11.26538 0 0
9:15 pm 21:15 Cloudy with Light Rain 39 3.8 36 2.4 91 91 NNW 8 13 29.99 1016 5 8.0467 0.01 0.254
9:35 pm 21:35 Cloudy with Drizzle 39 3.8 37 2.5 91 91 NW 10 17 29.99 1016 7 11.26538 0.01 0.254
9:55 pm 21:55 Cloudy with Drizzle 39 4 37 2.7 91 91 NW 10 17 29.99 1015 10 16.0934 0.02 0.508
10:15 pm 22:15 Cloudy with Drizzle 39 4.1 37 2.5 89 89 NW 13 20 29.99 1015 10 16.0934 0 0
10:35 pm 22:35 Cloudy with Drizzle 40 4.2 37 2.7 90 90 NNW 14 22 30 1016 10 16.0934 0 0
10:55 pm 22:55 Cloudy with Light Rain 39 4.1 37 2.9 92 92 N 13 20 30 1016 10 16.0934 0 0
11:15 pm 23:15 Cloudy with Light Rain 39 4.1 37 2.7 91 91 NNW 14 22 30 1016 7 11.26538 0.02 0.508
11:35 pm 23:35 Cloudy with Light Rain 40 4.3 38 3.1 92 92 NNW 15 24 29.98 1015 10 16.0934 0.03 0.762
11:55 pm 23:55 Cloudy with Light Rain 40 4.5 38 3.3 92 92 NNW 16 26 29.98 1015 7 11.26538 0.04 1.016

Powered by AerisWeather